Weather History for Cody, WY

Change the Weather History Date:

Monday, April 14, 2014

  Actual Average Record
Temperature  
Mean Temperature 34 °F -  
Max Temperature 46 °F 57 °F 78 °F (1963)
Min Temperature 21 °F 29 °F 12 °F (1983)
Degree Days  
Heating Degree Days 32    
Moisture  
Dew Point 14 °F    
Average Humidity 46    
Maximum Humidity 80    
Minimum Humidity 25    
Precipitation  
Precipitation 0.00 in - - ()
Sea Level Pressure  
Sea Level Pressure 30.15 in    
Wind  
Wind Speed 7 mph (SW)    
Max Wind Speed 15 mph    
Max Gust Speed 21 mph    
Visibility 10 miles    
Events      
Averages and records for this station are not official NWS values.
T = Trace of Precipitation, MM = Missing Value Source: NWS Daily Summary

Daily Weather History Graph

Daily Weather History Graph

Search for Another Location

Airport:

Trip Planner

Search our weather history database for the weather conditions in past years. The results will help you decide how hot, cold, wet, or windy it might be!

Date:

Astronomy

Apr. 14, 2014 Rise Set
Actual Time 6:33 AM MDT 7:59 PM MDT
Civil Twilight 6:03 AM MDT 8:30 PM MDT
Nautical Twilight 5:26 AM MDT 9:06 PM MDT
Astronomical Twilight 4:47 AM MDT 9:46 PM MDT
Moon 7:41 PM MDT (4/14) 6:09 AM MDT (4/14)
Length of Visible Light 14h 26m
Length of Day
13h 26m
Full, 100% of the Moon is Illuminated
Apr 14
Full
Apr 15
Full
Apr 22
Last Quarter
Apr 29
New
May 6
First Quarter

Hourly Weather History & Observations

Time (MDT) Temp. Windchill Dew Point Humidity Pressure Visibility Wind Dir Wind Speed Gust Speed Precip Events Conditions
12:15 AM 21.2 °F 11.7 °F 14.0 °F 74% 30.30 in 10.0 mi WSW 8.1 mph - N/A   Clear
12:35 AM 21.2 °F 10.9 °F 14.0 °F 74% 30.30 in 10.0 mi SW 9.2 mph - N/A   Clear
12:55 AM 21.2 °F 11.7 °F 15.8 °F 80% 30.30 in 10.0 mi WSW 8.1 mph - N/A   Clear
1:15 AM 21.2 °F 9.5 °F 12.2 °F 68% 30.30 in 10.0 mi SW 11.5 mph - N/A   Clear
1:35 AM 21.2 °F 9.5 °F 12.2 °F 68% 30.29 in 10.0 mi SW 11.5 mph - N/A   Clear
1:55 AM 21.2 °F 10.1 °F 12.2 °F 68% 30.29 in 10.0 mi SW 10.4 mph - N/A   Clear
2:15 AM 21.2 °F 10.9 °F 14.0 °F 74% 30.29 in 10.0 mi SW 9.2 mph - N/A   Clear
2:35 AM 21.2 °F 12.6 °F 12.2 °F 68% 30.28 in 10.0 mi WSW 6.9 mph - N/A   Clear
2:55 AM 21.2 °F 12.6 °F 14.0 °F 74% 30.28 in 10.0 mi SW 6.9 mph - N/A   Clear
3:15 AM 21.2 °F 13.6 °F 12.2 °F 68% 30.27 in 10.0 mi WSW 5.8 mph - N/A   Clear
3:35 AM 21.2 °F 14.9 °F 10.4 °F 63% 30.27 in 10.0 mi WSW 4.6 mph - N/A   Clear
3:55 AM 21.2 °F 12.6 °F 10.4 °F 63% 30.26 in 10.0 mi WSW 6.9 mph - N/A   Clear
4:15 AM 21.2 °F 16.4 °F 12.2 °F 68% 30.26 in 10.0 mi WSW 3.5 mph - N/A   Clear
4:35 AM 21.2 °F 14.9 °F 8.6 °F 58% 30.26 in 10.0 mi SSW 4.6 mph - N/A   Clear
4:55 AM 21.2 °F 14.9 °F 8.6 °F 58% 30.25 in 10.0 mi West 4.6 mph - N/A   Clear
5:15 AM 21.2 °F - 6.8 °F 54% 30.24 in 10.0 mi Calm Calm - N/A   Clear
5:35 AM 23.0 °F 13.9 °F 6.8 °F 50% 30.24 in 10.0 mi WNW 8.1 mph - N/A   Clear
5:55 AM 21.2 °F - 5.0 °F 50% 30.23 in 10.0 mi Calm Calm - N/A   Clear
6:15 AM 23.0 °F 15.8 °F 8.6 °F 54% 30.23 in 10.0 mi WSW 5.8 mph - N/A   Clear
6:35 AM 24.8 °F - 6.8 °F 46% 30.24 in 10.0 mi Calm Calm - N/A   Clear
6:55 AM 24.8 °F - 3.2 °F 40% 30.24 in 10.0 mi Calm Calm - N/A   Clear
7:15 AM 24.8 °F 19.1 °F 3.2 °F 40% 30.24 in 10.0 mi WNW 4.6 mph - N/A   Clear
7:35 AM 26.6 °F 21.2 °F 5.0 °F 40% 30.23 in 10.0 mi North 4.6 mph - N/A   Clear
7:55 AM 26.6 °F 20.0 °F 6.8 °F 43% 30.23 in 10.0 mi ESE 5.8 mph - N/A   Clear
8:15 AM 26.6 °F - 5.0 °F 40% 30.24 in 10.0 mi Calm Calm - N/A   Clear
8:35 AM 30.2 °F 21.3 °F 5.0 °F 34% 30.23 in 10.0 mi WNW 10.4 mph - N/A   Clear
8:55 AM 30.2 °F 20.2 °F 3.2 °F 32% 30.23 in 10.0 mi West 12.7 mph 20.7 mph N/A   Clear
9:15 AM 32.0 °F 25.6 °F 5.0 °F 32% 30.22 in 10.0 mi West 6.9 mph 17.3 mph N/A   Clear
9:35 AM 30.2 °F 24.3 °F 6.8 °F 37% 30.23 in 10.0 mi North 5.8 mph - N/A   Clear
9:55 AM 30.2 °F - 10.4 °F 44% 30.23 in 10.0 mi Calm Calm - N/A   Clear
10:15 AM 33.8 °F 28.6 °F 10.4 °F 38% 30.22 in 10.0 mi NNW 5.8 mph - N/A   Clear
10:35 AM 32.0 °F 27.5 °F 12.2 °F 44% 30.22 in 10.0 mi NNE 4.6 mph - N/A   Clear
10:55 AM 32.0 °F 28.7 °F 14.0 °F 48% 30.21 in 10.0 mi NE 3.5 mph - N/A   Clear
11:15 AM 33.8 °F 28.6 °F 15.8 °F 48% 30.21 in 10.0 mi ENE 5.8 mph - N/A   Clear
11:35 AM 33.8 °F 29.6 °F 15.8 °F 48% 30.20 in 10.0 mi NNE 4.6 mph - N/A   Clear
11:55 AM 35.6 °F - 17.6 °F 48% 30.19 in 10.0 mi Calm Calm - N/A   Clear
12:15 PM 39.2 °F 34.2 °F 10.4 °F 31% 30.17 in 10.0 mi NNE 6.9 mph - N/A   Clear
12:35 PM 39.2 °F 37.0 °F 14.0 °F 36% 30.16 in 10.0 mi South 3.5 mph - N/A   Clear
12:55 PM 37.4 °F 29.3 °F 19.4 °F 48% 30.15 in 10.0 mi ENE 12.7 mph - N/A   Clear
1:15 PM 39.2 °F 31.2 °F 14.0 °F 36% 30.14 in 10.0 mi SSE 13.8 mph - N/A   Clear
1:35 PM 39.2 °F 31.2 °F 15.8 °F 39% 30.14 in 10.0 mi SSE 13.8 mph - N/A   Clear
1:55 PM 39.2 °F 31.6 °F 15.8 °F 39% 30.14 in 10.0 mi SE 12.7 mph - N/A   Clear
2:15 PM 39.2 °F 32.0 °F 17.6 °F 42% 30.13 in 10.0 mi SE 11.5 mph - N/A   Clear
2:35 PM 41.0 °F 33.9 °F 17.6 °F 39% 30.12 in 10.0 mi SE 12.7 mph - N/A   Clear
2:55 PM 42.8 °F 37.0 °F 15.8 °F 34% 30.11 in 10.0 mi SE 10.4 mph - N/A   Clear
3:15 PM 42.8 °F 36.6 °F 17.6 °F 36% 30.11 in 10.0 mi SSE 11.5 mph - N/A   Clear
3:35 PM 42.8 °F 36.2 °F 19.4 °F 39% 30.09 in 10.0 mi SSE 12.7 mph - N/A   Clear
3:55 PM 42.8 °F 35.8 °F 17.6 °F 36% 30.08 in 10.0 mi SE 13.8 mph - N/A   Clear
4:15 PM 44.6 °F 39.7 °F 17.6 °F 34% 30.07 in 10.0 mi ESE 9.2 mph - N/A   Clear
4:35 PM 44.6 °F 39.2 °F 17.6 °F 34% 30.06 in 10.0 mi SSE 10.4 mph - N/A   Clear
4:55 PM 44.6 °F 39.2 °F 21.2 °F 39% 30.05 in 10.0 mi ESE 10.4 mph - N/A   Clear
5:15 PM 46.4 °F 41.5 °F 21.2 °F 37% 30.04 in 10.0 mi ESE 10.4 mph - N/A   Clear
5:35 PM 46.4 °F 41.5 °F 21.2 °F 37% 30.03 in 10.0 mi ESE 10.4 mph - N/A   Clear
5:55 PM 46.4 °F 41.5 °F 21.2 °F 37% 30.03 in 10.0 mi ESE 10.4 mph - N/A   Clear
6:15 PM 46.4 °F 42.4 °F 23.0 °F 40% 30.02 in 10.0 mi ESE 8.1 mph - N/A   Clear
6:35 PM 44.6 °F 38.4 °F 24.8 °F 46% 30.02 in 10.0 mi East 12.7 mph - N/A   Clear
6:55 PM 46.4 °F 42.4 °F 24.8 °F 43% 30.01 in 10.0 mi SSE 8.1 mph - N/A   Clear
7:15 PM 46.4 °F 44.3 °F 21.2 °F 37% 30.01 in 10.0 mi SE 4.6 mph - N/A   Clear
7:35 PM 46.4 °F 42.4 °F 15.8 °F 29% 30.00 in 10.0 mi WSW 8.1 mph - N/A   Clear
7:55 PM 44.6 °F 40.7 °F 17.6 °F 34% 30.00 in 10.0 mi West 6.9 mph - N/A   Clear
8:15 PM 42.8 °F 38.6 °F 19.4 °F 39% 30.00 in 10.0 mi West 6.9 mph - N/A   Clear
8:35 PM 41.0 °F 37.1 °F 19.4 °F 42% 30.00 in 10.0 mi WNW 5.8 mph - N/A   Clear
8:55 PM 37.4 °F 34.9 °F 21.2 °F 52% 30.00 in 10.0 mi WNW 3.5 mph - N/A   Clear
9:15 PM 35.6 °F 31.7 °F 21.2 °F 56% 30.00 in 10.0 mi North 4.6 mph - N/A   Clear
9:35 PM 32.0 °F 28.7 °F 23.0 °F 69% 29.99 in 10.0 mi West 3.5 mph - N/A   Clear
9:55 PM 37.4 °F 30.8 °F 21.2 °F 52% 29.99 in 10.0 mi NNW 9.2 mph - N/A   Clear
10:15 PM 42.8 °F 40.1 °F 17.6 °F 36% 29.99 in 10.0 mi WNW 4.6 mph - N/A   Clear
10:35 PM 42.8 °F 37.5 °F 15.8 °F 34% 29.98 in 10.0 mi WNW 9.2 mph - N/A   Clear
10:55 PM 44.6 °F 38.8 °F 12.2 °F 27% 29.97 in 10.0 mi WNW 11.5 mph 18.4 mph N/A   Clear
11:15 PM 44.6 °F 40.7 °F 12.2 °F 27% 29.97 in 10.0 mi WNW 6.9 mph 18.4 mph N/A   Clear
11:35 PM 44.6 °F 39.2 °F 12.2 °F 27% 29.96 in 10.0 mi West 10.4 mph 17.3 mph N/A   Clear
11:55 PM 44.6 °F 37.8 °F 10.4 °F 25% 29.95 in 10.0 mi West 15.0 mph 20.7 mph N/A   Clear